Location: Unspecified
(0.0000°N, 0.0000°E)
Time: 20:17:50
(UTC+00:00)

ARIANE 2 DEB - Pass Details

Date: 08 March 2026
Orbit: 794 x 35760 km, 8.3° (Epoch: 17 April)

Event Time Altitude Azimuth Distance (km) Brightness Sun altitude
Exits shadow 04:02:50 59° 136° (SE) 1,020 ? -31.9°
Drops below altitude 10° 04:09:03 10° 103° (ESE) 3,800 ? -30.3°
Sets 04:14:24 0° 101° (E) 6,300 ? -29.0°
